CW3186 Weather Reports


Display with metric or nautical units.
time (UTC)temp
F
wind
direction
speed
MPH
gust
MPH
rain 1hr
in
rain 24hr
in
rain mn
in
humidity
%
barometer
mb
20260505162003 56 151 2.0 7.0 0.00 0.00 0.00 82 1016.6
20260505161004 56 5 0.0 4.0 0.00 0.00 0.00 83 1016.5
20260505152503 55 202 2.0 7.0 0.00 0.00 0.00 84 1016.3
20260505151508 55 155 3.0 7.0 0.00 0.00 0.00 84 1016.2
20260505151003 55 265 1.0 4.0 0.00 0.00 0.00 84 1016.2
20260505150503 55 170 0.0 4.0 0.00 0.00 0.00 85 1016.1
20260505140503 54 230 1.0 8.0 0.00 0.00 0.00 85 1015.5
20260505125003 54 240 3.0 9.0 0.00 0.00 0.00 86 1014.8
20260505124513 54 209 1.0 5.0 0.00 0.00 0.00 86 1014.8
20260505124007 54 215 1.0 7.0 0.00 0.00 0.00 86 1014.8
20260505123023 54 185 0.0 7.0 0.00 0.00 0.00 86 1014.6
20260505122507 54 28 1.0 8.0 0.00 0.00 0.00 86 1014.6
20260505122009 54 183 2.0 9.0 0.00 0.00 0.00 86 1014.5
20260505121007 54 175 1.0 6.0 0.00 0.00 0.00 86 1014.5
20260505120509 54 315 2.0 6.0 0.00 0.00 0.00 87 1014.5
20260505120017 54 193 0.0 5.0 0.00 0.00 0.00 87 1014.4
20260505115509 54 158 1.0 9.0 0.00 0.00 0.00 87 1014.4
20260505115007 54 181 2.0 11.0 0.00 0.00 0.00 87 1014.3
20260505114509 54 177 2.0 11.0 0.00 0.00 0.00 87 1014.4
20260505114003 54 191 2.0 6.0 0.00 0.00 0.00 87 1014.4
20260505113504 54 160 1.0 7.0 0.00 0.00 0.00 87 1014.4
20260505113014 54 180 2.0 11.0 0.00 0.00 0.00 87 1014.4
20260505112007 53 178 1.0 8.0 0.00 0.00 0.00 88 1014.3
20260505111531 53 153 3.0 7.0 0.00 0.00 0.00 88 1014.3
20260505111008 53 151 1.0 6.0 0.00 0.00 0.00 88 1014.3
20260505110508 53 229 1.0 6.0 0.00 0.00 0.00 88 1014.2
20260505102007 53 147 2.0 8.0 0.00 0.00 0.00 88 1014.0
20260505101504 53 121 3.0 8.0 0.00 0.00 0.00 89 1014.0
20260505101002 53 190 0.0 8.0 0.00 0.00 0.00 89 1014.0
20260505100503 53 164 3.0 7.0 0.00 0.00 0.00 89 1014.0
20260505100005 53 225 1.0 5.0 0.00 0.00 0.00 89 1014.0
20260505095507 53 175 1.0 4.0 0.00 0.00 0.00 89 1014.0
20260505095007 53 175 0.0 5.0 0.00 0.00 0.00 88 1013.9
20260505094510 53 221 1.0 6.0 0.00 0.00 0.00 88 1013.8
20260505094004 53 177 2.0 6.0 0.00 0.00 0.00 88 1013.7
20260505093505 53 165 2.0 8.0 0.00 0.00 0.00 88 1013.7
20260505093012 53 176 2.0 7.0 0.00 0.00 0.00 88 1013.6
20260505092006 53 159 0.0 2.0 0.00 0.00 0.00 88 1013.5
20260505091513 53 121 0.0 5.0 0.00 0.00 0.00 87 1013.4
20260505091007 53 209 0.0 5.0 0.00 0.00 0.00 87 1013.4
20260505090507 53 333 0.0 4.0 0.00 0.00 0.00 87 1013.4
20260505090007 54 110 0.0 4.0 0.00 0.00 0.00 87 1013.4
20260505085503 54 178 0.0 7.0 0.00 0.00 0.00 87 1013.5
20260505085004 54 305 2.0 7.0 0.00 0.00 0.00 87 1013.4
20260505084602 54 219 0.0 3.0 0.00 0.00 0.00 87 1013.4
20260505084004 54 117 1.0 3.0 0.00 0.00 0.00 87 1013.3
20260505083504 54 148 1.0 3.0 0.00 0.00 0.00 87 1013.3
20260505083008 54 172 0.0 3.0 0.00 0.00 0.00 86 1013.2
20260505082504 54 186 1.0 4.0 0.00 0.00 0.00 86 1013.2
20260505082006 54 198 0.0 4.0 0.00 0.00 0.00 86 1013.2
20260505081519 54 192 1.0 3.0 0.00 0.00 0.00 86 1013.1
20260505081006 55 186 0.0 3.0 0.00 0.00 0.00 85 1013.1
20260505080510 55 184 0.0 3.0 0.00 0.00 0.00 85 1013.1
20260505080020 55 190 0.0 6.0 0.00 0.00 0.00 85 1013.0
20260505075510 55 227 0.0 6.0 0.00 0.00 0.00 84 1013.0
20260505075007 55 214 1.0 5.0 0.00 0.00 0.00 84 1013.0
20260505074505 55 235 1.0 4.0 0.00 0.00 0.00 84 1013.0
20260505074004 55 147 0.0 4.0 0.00 0.00 0.00 84 1012.9
20260505073505 56 172 1.0 4.0 0.00 0.00 0.00 84 1012.8
20260505073008 56 192 2.0 6.0 0.00 0.00 0.00 83 1012.8
20260505072505 56 167 1.0 6.0 0.00 0.00 0.00 83 1012.8
20260505072005 56 192 1.0 3.0 0.00 0.00 0.00 83 1012.7
20260505071509 56 150 0.0 2.0 0.00 0.00 0.00 82 1012.7
20260505071005 56 175 0.0 4.0 0.00 0.00 0.00 82 1012.6
20260505070507 56 142 1.0 4.0 0.00 0.00 0.00 82 1012.7
20260505070014 56 232 1.0 6.0 0.00 0.00 0.00 82 1012.5
20260505065507 57 205 1.0 5.0 0.00 0.00 0.00 81 1012.4
20260505065007 57 191 1.0 6.0 0.00 0.00 0.00 81 1012.4
20260505064531 57 173 2.0 6.0 0.00 0.00 0.00 80 1012.3
20260505064010 57 204 0.0 6.0 0.00 0.00 0.00 80 1012.3
20260505063509 57 210 1.0 6.0 0.00 0.00 0.00 79 1012.3
20260505063003 58 180 0.0 6.0 0.00 0.00 0.00 79 1012.3
20260505062507 58 173 2.0 6.0 0.00 0.00 0.00 79 1012.3
20260505062003 58 215 1.0 4.0 0.00 0.00 0.00 78 1012.1
20260505061509 58 186 0.0 8.0 0.00 0.00 0.00 78 1012.1
20260505061004 59 147 2.0 8.0 0.00 0.00 0.00 77 1012.1
20260505060506 59 123 2.0 5.0 0.00 0.00 0.00 76 1012.0
20260505060010 60 337 1.0 5.0 0.00 0.00 0.00 76 1011.9
20260505055507 60 191 1.0 5.0 0.00 0.00 0.00 75 1011.8
20260505055007 60 173 1.0 10.0 0.00 0.00 0.00 74 1011.8
20260505054530 61 117 2.0 10.0 0.00 0.00 0.00 74 1011.7
20260505054008 61 150 2.0 5.0 0.00 0.00 0.00 74 1011.7
20260505053511 61 149 1.0 5.0 0.00 0.00 0.00 73 1011.7
20260505053023 61 192 1.0 2.0 0.00 0.00 0.00 73 1011.6
20260505052508 62 210 1.0 4.0 0.00 0.00 0.00 73 1011.5
20260505052007 62 163 0.0 4.0 0.00 0.00 0.00 73 1011.5
20260505051511 62 229 0.0 3.0 0.00 0.00 0.00 72 1011.5
20260505051004 62 200 0.0 3.0 0.00 0.00 0.00 72 1011.4
20260505050508 62 205 0.0 2.0 0.00 0.00 0.00 71 1011.4
20260505041522 66 263 0.0 3.0 0.00 0.00 0.00 65 1011.1
20260505041009 66 234 0.0 3.0 0.00 0.00 0.00 65 1011.0
20260505040511 66 259 1.0 5.0 0.00 0.00 0.00 64 1010.9
20260505040011 67 205 0.0 5.0 0.00 0.00 0.00 64 1010.8
20260505035507 67 213 1.0 3.0 0.00 0.00 0.00 63 1010.7
20260505035004 68 260 0.0 5.0 0.00 0.00 0.00 62 1010.7
20260505034524 68 246 1.0 5.0 0.00 0.00 0.00 61 1010.7
20260505034004 69 286 0.0 3.0 0.00 0.00 0.00 60 1010.6
20260505033506 69 232 1.0 6.0 0.00 0.00 0.00 59 1010.4
20260505033018 69 264 0.0 7.0 0.00 0.00 0.00 58 1010.3
20260505032507 70 236 2.0 7.0 0.00 0.00 0.00 57 1010.1
20260505032008 70 250 1.0 8.0 0.00 0.00 0.00 56 1010.1
20260505031519 71 230 1.0 8.0 0.00 0.00 0.00 55 1010.0
20260505031007 71 193 2.0 7.0 0.00 0.00 0.00 54 1010.0
20260505030508 72 263 1.0 6.0 0.00 0.00 0.00 53 1009.9
20260505030040 72 265 1.0 7.0 0.00 0.00 0.00 52 1010.0
20260505025513 73 251 2.0 5.0 0.00 0.00 0.00 52 1009.9
20260505025011 73 273 1.0 5.0 0.00 0.00 0.00 51 1009.9
20260505024517 74 226 1.0 7.0 0.00 0.00 0.00 50 1009.9
20260505024004 74 205 1.0 8.0 0.00 0.00 0.00 50 1009.8
20260505023504 75 281 3.0 8.0 0.00 0.00 0.00 48 1009.8
20260505023019 76 240 2.0 6.0 0.00 0.00 0.00 47 1009.8
20260505022506 77 253 1.0 4.0 0.00 0.00 0.00 47 1009.8
20260505022011 77 292 1.0 3.0 0.00 0.00 0.00 46 1009.8
20260505021523 78 208 0.0 3.0 0.00 0.00 0.00 46 1009.8
20260505021007 78 198 1.0 5.0 0.00 0.00 0.00 45 1009.8
20260505020503 79 194 1.0 6.0 0.00 0.00 0.00 45 1009.8
20260505020006 79 283 1.0 6.0 0.00 0.00 0.00 43 1009.8
20260505015504 80 207 0.0 4.0 0.00 0.00 0.00 43 1009.8
20260505015004 80 252 1.0 4.0 0.00 0.00 0.00 1009.8
20260505014513 80 196 1.0 3.0 0.00 0.00 0.00 1009.8
20260505014005 80 212 2.0 3.0 0.00 0.00 0.00 38 1009.8
20260505013504 81 221 1.0 3.0 0.00 0.00 0.00 38 1009.8
20260505013018 81 151 1.0 6.0 0.00 0.00 0.00 39 1009.8
20260505012509 81 161 2.0 7.0 0.00 0.00 0.00 38 1009.8
20260505012001 82 150 2.0 7.0 0.00 0.00 0.00 37 1009.8
20260505011502 82 232 0.0 3.0 0.00 0.00 0.00 37 1009.9
20260505011003 82 247 1.0 7.0 0.00 0.00 0.00 36 1009.9
20260505010502 83 260 2.0 7.0 0.00 0.00 0.00 36 1009.9
20260505010002 83 231 1.0 5.0 0.00 0.00 0.00 35 1010.0
20260505005501 83 274 0.0 4.0 0.00 0.00 0.00 36 1009.9
20260505005003 83 243 1.0 3.0 0.00 0.00 0.00 36 1009.9
20260505004518 83 224 0.0 3.0 0.00 0.00 0.00 36 1009.9
20260505004004 83 236 1.0 4.0 0.00 0.00 0.00 36 1010.0
20260505003504 82 162 1.0 7.0 0.00 0.00 0.00 35 1010.0
20260505003011 83 243 2.0 7.0 0.00 0.00 0.00 35 1010.1
20260505002509 82 247 1.0 6.0 0.00 0.00 0.00 35 1010.0
20260505002008 82 260 3.0 6.0 0.00 0.00 0.00 35 1010.0
20260505001515 81 207 1.0 7.0 0.00 0.00 0.00 36 1010.0
20260505001007 82 241 1.0 7.0 0.00 0.00 0.00 35 1010.1
20260505000507 82 288 4.0 10.0 0.00 0.00 0.00 35 1010.1
20260505000009 81 244 2.0 10.0 0.00 0.00 0.00 35 1010.1
20260504235503 81 161 1.0 6.0 0.00 0.00 0.00 35 1010.1
20260504235004 82 277 3.0 7.0 0.00 0.00 0.00 35 1010.2
20260504234507 82 271 5.0 8.0 0.00 0.00 0.00 34 1010.3
20260504234003 81 327 1.0 8.0 0.00 0.00 0.00 36 1010.2
20260504233504 81 311 3.0 8.0 0.00 0.00 0.00 35 1010.2
20260504233009 81 141 2.0 9.0 0.00 0.00 0.00 34 1010.2
20260504232504 82 330 4.0 9.0 0.00 0.00 0.00 34 1010.3
20260504232005 82 174 2.0 6.0 0.00 0.00 0.00 33 1010.2
20260504231511 81 266 1.0 7.0 0.00 0.00 0.00 33 1010.3
20260504231008 81 182 1.0 7.0 0.00 0.00 0.00 32 1010.2
20260504230507 81 198 2.0 7.0 0.00 0.00 0.00 33 1010.3
20260504230018 81 218 2.0 7.0 0.00 0.00 0.00 33 1010.2
20260504225508 81 197 2.0 8.0 0.00 0.00 0.00 33 1010.3
20260504225003 81 231 3.0 8.0 0.00 0.00 0.00 32 1010.4
20260504224505 81 148 3.0 7.0 0.00 0.00 0.00 32 1010.5
20260504224003 81 200 2.0 7.0 0.00 0.00 0.00 32 1010.6
20260504223504 81 145 3.0 8.0 0.00 0.00 0.00 31 1010.6
20260504223006 81 203 2.0 8.0 0.00 0.00 0.00 31 1010.7
20260504222504 81 165 2.0 9.0 0.00 0.00 0.00 31 1010.8
20260504222007 81 192 2.0 9.0 0.00 0.00 0.00 30 1010.9
20260504221513 81 163 2.0 6.0 0.00 0.00 0.00 32 1010.9
20260504221005 81 283 2.0 6.0 0.00 0.00 0.00 31 1010.9
20260504220505 81 263 2.0 4.0 0.00 0.00 0.00 31 1010.9
20260504220018 81 165 1.0 7.0 0.00 0.00 0.00 34 1010.9
20260504215509 81 167 3.0 7.0 0.00 0.00 0.00 32 1010.9
20260504215015 80 261 3.0 6.0 0.00 0.00 0.00 36 1010.9
20260504214520 80 346 2.0 8.0 0.00 0.00 0.00 35 1011.0
20260504214009 80 255 2.0 8.0 0.00 0.00 0.00 37 1011.2
20260504213504 80 218 1.0 5.0 0.00 0.00 0.00 37 1011.1
20260504213019 80 189 2.0 7.0 0.00 0.00 0.00 36 1011.1
20260504212503 80 246 3.0 7.0 0.00 0.00 0.00 35 1011.2
20260504212004 80 186 2.0 7.0 0.00 0.00 0.00 32 1011.2
20260504211513 80 109 1.0 7.0 0.00 0.00 0.00 31 1011.2
20260504211004 80 203 3.0 9.0 0.00 0.00 0.00 31 1011.3
20260504210512 79 169 2.0 11.0 0.00 0.00 0.00 33 1011.2
20260504210018 80 138 4.0 11.0 0.00 0.00 0.00 33 1011.3
20260504205507 80 209 2.0 8.0 0.00 0.00 0.00 34 1011.3
20260504205007 79 209 1.0 6.0 0.00 0.00 0.00 35 1011.3
20260504204518 79 233 3.0 7.0 0.00 0.00 0.00 33 1011.2
20260504204008 79 186 3.0 7.0 0.00 0.00 0.00 34 1011.2
20260504203513 78 214 1.0 7.0 0.00 0.00 0.00 34 1011.2
20260504203022 79 223 3.0 7.0 0.00 0.00 0.00 35 1011.1
20260504202509 79 218 3.0 6.0 0.00 0.00 0.00 35 1011.1
20260504202004 79 145 2.0 8.0 0.00 0.00 0.00 37 1011.1
20260504201509 79 267 2.0 8.0 0.00 0.00 0.00 36 1011.1
20260504201003 79 126 1.0 5.0 0.00 0.00 0.00 40 1011.2
20260504200503 79 114 1.0 5.0 0.00 0.00 0.00 38 1011.2
20260504200013 78 200 1.0 5.0 0.00 0.00 0.00 39 1011.2
20260504195507 78 216 1.0 5.0 0.00 0.00 0.00 39 1011.1
20260504195004 78 197 1.0 6.0 0.00 0.00 0.00 1011.1
20260504194523 78 331 2.0 6.0 0.00 0.00 0.00 36 1011.1
20260504194009 78 140 1.0 6.0 0.00 0.00 0.00 36 1011.1
20260504193020 77 152 2.0 6.0 0.00 0.00 0.00 36 1011.3
20260504192508 77 161 2.0 6.0 0.00 0.00 0.00 36 1011.3
20260504192009 77 252 2.0 5.0 0.00 0.00 0.00 37 1011.4
20260504191537 77 127 1.0 5.0 0.00 0.00 0.00 38 1011.4
20260504191005 76 139 2.0 10.0 0.00 0.00 0.00 39 1011.3
20260504190508 75 146 1.0 10.0 0.00 0.00 0.00 40 1011.5
20260504190019 75 208 4.0 8.0 0.00 0.00 0.00 1011.5
20260504185503 75 178 3.0 8.0 0.00 0.00 0.00 1011.5
20260504185007 75 121 4.0 8.0 0.00 0.00 0.00 1011.6
20260504184532 76 171 3.0 8.0 0.00 0.00 0.00 1011.5
20260504184010 77 166 3.0 7.0 0.00 0.00 0.00 40 1011.6
20260504183508 76 241 1.0 7.0 0.00 0.00 0.00 40 1011.5
20260504183023 76 177 2.0 8.0 0.00 0.00 0.00 43 1011.5
20260504182512 75 126 4.0 8.0 0.00 0.00 0.00 41 1011.4
20260504182010 75 162 3.0 7.0 0.00 0.00 0.00 43 1011.4
20260504181523 75 173 2.0 7.0 0.00 0.00 0.00 43 1011.5
20260504181010 75 129 3.0 7.0 0.00 0.00 0.00 43 1011.5
20260504180512 74 298 1.0 4.0 0.00 0.00 0.00 47 1011.5
20260504180032 73 50 1.0 6.0 0.00 0.00 0.00 1011.5
20260504175504 73 55 3.0 6.0 0.00 0.00 0.00 53 1011.6
20260504175005 73 68 1.0 3.0 0.00 0.00 0.00 53 1011.6
20260504174513 72 352 1.0 3.0 0.00 0.00 0.00 53 1011.7
20260504174007 72 49 1.0 3.0 0.00 0.00 0.00 54 1011.6
20260504173506 72 58 2.0 4.0 0.00 0.00 0.00 53 1011.6
20260504173020 72 107 2.0 4.0 0.00 0.00 0.00 52 1011.6
20260504172507 72 49 2.0 3.0 0.00 0.00 0.00 55 1011.6
20260504172008 72 105 1.0 3.0 0.00 0.00 0.00 54 1011.7
20260504171522 72 67 1.0 4.0 0.00 0.00 0.00 53 1011.6
20260504171011 71 263 2.0 4.0 0.00 0.00 0.00 50 1011.6
20260504170504 71 203 2.0 4.0 0.00 0.00 0.00 51 1011.6